Weather in Slobozhanske

Ukraine / Kharkiv Region     49°22′02″N   35°52′02″E
temp.,
°C
wind,
m/s
gust,
m/s
humid.,
%
clouds,
%
prec.,
mm/h
press.,
hPa
HPBL,
m
16 april, fri
fri1600:00+7s489073 0.1 1013214
03:00+7sse5992100 0.1 1013508
06:00+7s5992100 0.3 1014587
09:00+7s5987100 0.4 1015610
12:00+8s6782100 0.3 1016768
15:00+11ssw6861100 0.8 10151319
18:00+11s686495 0.9 10151238
21:00+8sse3885100 2.1 1016322
17 april, sat
sat1700:00+6ssw4784100 0.4 1016217
03:00+4sw36915 0.4 1018195
06:00+4ssw4689100 0.0 1018446
09:00+5sw3586100 0.3 1019718
12:00+6sw5684100 0.2 1020748
15:00+9w4669100 0.3 10201194
18:00+8w3769100 0.1 1020884
21:00+6wsw348325 0.1 102172
18 april, sun
sun1800:00+5sw228469 0.0 102029
03:00+6sse358286 0.0 102094
06:00+5s3887100 0.0 1019198
09:00+9ssw5768100 0.0 1019502
12:00+13ssw684753 0.0 10181877
15:00+15sw564198 0.0 10172123
18:00+14sw2452100 0.0 1017112
21:00+12ssw225491 0.0 101727
19 april, mon
mon1900:00+10s3461100 0.0 101671
03:00+9ssw3567100 0.0 101693
06:00+7sw117295 0.0 101610
09:00+12se2256100 0.0 1016433
12:00+15ese334390 0.0 10141658
15:00+17ese3441100 0.0 10132040
18:00+13ese6864100 0.0 1012710
21:00+10e61088100 0.0 1010506
20 april, tue
tue2000:00+10e61289100 0.4 1007524
03:00+11e81496100 4.3 1001658
06:00+12ese71396100 9.6 997607
09:00+11s4995100 13.5 996507
12:00+15s10146362 0.5 9961719
15:00+14s101656100 0.8 9962052
18:00+9sse101481100 0.3 9961413
21:00+8s111490100 1.9 9961271